1485637200.86,48571,12.31,73828.0,-3.09,-33.73,-34.01,0,*57
1485637202.13,48572,12.31,73830.0,-3.09,-33.67,-34.01,0,*51
1485637203.39,48573,12.31,73828.0,-3.09,-33.83,-34.01,0,*5A
1485637204.65,48574,12.31,73828.3,-3.09,-33.67,-34.01,0,*57
1485637205.89,48575,12.31,73830.3,-3.11,-33.73,-33.95,0,*50
1485637207.12,48576,12.31,73828.8,-3.11,-33.61,-33.95,0,*50
1485637208.38,48577,12.38,73828.5,-3.09,-33.67,-33.89,0,*53
1485637209.64,48578,12.31,73828.3,-3.09,-33.37,-33.49,0,*55
1485637210.9,48579,12.38,73830.3,-3.09,-33.49,-33.55,0,*50
1485637212.17,48580,12.31,73828.0,-3.09,-33.49,-33.67,0,*57
1485637213.46,48581,12.31,73828.5,-3.09,-33.49,-33.73,0,*53
1485637214.72,48582,12.31,73826.5,-3.09,-33.37,-33.73,0,*59
1485637215.95,48583,12.31,73826.0,-3.09,-33.55,-33.83,0,*53
1485637217.21,48584,12.31,73826.8,-3.09,-33.67,-33.89,0,*5F
1485637218.45,48585,12.31,73828.8,-3.11,-33.67,-34.01,0,*50
1485637219.68,48586,12.31,73828.0,-3.09,-33.55,-33.83,0,*56
1485637220.91,48587,12.38,73828.0,-3.09,-33.55,-33.83,0,*57
1485637222.17,48588,12.31,73824.5,-3.09,-33.67,-33.89,0,*53
1485637223.41,48589,12.31,73828.5,-3.09,-33.55,-33.67,0,*53
1485637224.65,48590,12.31,73826.8,-3.09,-33.37,-33.67,0,*5F
1485637225.94,48591,12.31,73824.0,-3.09,-33.49,-33.73,0,*52
1485637227.2,48592,12.31,73826.5,-3.09,-33.73,-33.95,0,*50
1485637228.46,48593,12.31,73826.5,-3.09,-33.73,-34.13,0,*58
1485637229.72,48594,12.38,73828.0,-3.11,-33.61,-33.89,0,*51
1485637230.98,48595,12.38,73828.3,-3.11,-33.73,-33.77,0,*52
1485637232.22,48596,12.31,73824.0,-3.11,-33.73,-33.95,0,*5D
1485637233.47,48597,12.31,73824.0,-3.11,-33.61,-33.61,0,*54
1485637234.73,48598,12.31,73826.0,-3.09,-33.49,-33.55,0,*5F
1485637235.96,48599,12.31,73826.3,-3.11,-33.37,-33.61,0,*59
1485637237.2,48600,12.38,73830.3,-3.11,-33.21,-33.27,0,*5F
1485637238.46,48601,12.31,73826.0,-3.09,-33.21,-33.49,0,*5F
1485637239.7,48602,12.38,73830.5,-3.09,-33.37,-33.55,0,*56
1485637240.94,48603,12.31,73826.3,-3.11,-33.37,-33.43,0,*59
1485637242.2,48604,12.31,73824.0,-3.09,-32.85,-33.15,0,*5C
1485637243.46,48605,12.31,73826.5,-3.09,-32.97,-33.21,0,*59
1485637244.7,48606,12.31,73826.5,-3.09,-33.21,-33.37,0,*51
1485637245.94,48607,12.31,73826.8,-3.09,-33.37,-33.67,0,*52
1485637247.15,48608,12.31,73826.3,-3.07,-33.37,-33.67,0,*53
1485637248.41,48609,12.31,73828.8,-3.09,-33.21,-33.49,0,*57
1485637249.62,48610,12.31,73824.8,-3.07,-33.15,-33.37,0,*5F
1485637250.9,48611,12.31,73824.0,-3.05,-33.27,-33.31,0,*5B
1485637252.13,48612,12.31,73828.3,-3.07,-33.15,-33.31,0,*5B
1485637253.34,48613,12.31,73824.5,-3.07,-33.03,-33.21,0,*5C
1485637254.57,48614,12.31,73826.5,-3.07,-32.97,-33.15,0,*50
1485637255.81,48615,12.31,73828.8,-3.07,-33.03,-33.31,0,*5B
1485637257.06,48616,12.38,73828.3,-3.05,-32.97,-33.15,0,*50
1485637258.34,48617,12.31,73830.0,-3.05,-33.27,-33.31,0,*5D
1485637259.59,48618,12.31,73826.0,-3.05,-32.91,-33.09,0,*55
1485637260.82,48619,12.31,73826.8,-3.07,-32.97,-33.15,0,*5D
1485637262.08,48620,12.31,73826.3,-3.05,-33.09,-33.15,0,*53
1485637263.36,48621,12.31,73824.3,-3.05,-33.09,-33.27,0,*53
1485637264.64,48622,12.31,73828.8,-3.05,-33.27,-33.31,0,*5B
1485637265.88,48623,12.31,73828.3,-3.03,-33.09,-33.37,0,*56
1485637267.14,48624,12.31,73830.5,-3.05,-33.15,-33.31,0,*5C
1485637268.39,48625,12.31,73824.8,-3.05,-33.15,-33.31,0,*5D
1485637269.67,48626,12.31,73830.5,-3.05,-33.27,-33.31,0,*5F
1485637270.91,48627,12.38,73828.3,-3.03,-33.21,-33.27,0,*59
1485637272.18,48628,12.31,73830.3,-3.03,-33.09,-33.27,0,*5C
1485637273.41,48629,12.31,73828.3,-3.03,-32.91,-33.09,0,*51
1485637274.64,48630,12.31,73826.3,-3.03,-33.03,-33.09,0,*53
1485637275.86,48631,12.31,73828.5,-3.03,-33.21,-33.37,0,*5F
1485637277.07,48632,12.31,73830.8,-3.03,-33.21,-33.37,0,*5C
1485637278.3,48633,12.31,73830.3,-3.03,-33.27,-33.55,0,*5F
1485637279.58,48634,12.31,73830.8,-3.01,-33.27,-33.61,0,*5D
1485637280.82,48635,12.31,73830.0,-3.03,-33.37,-33.61,0,*5F
1485637282.05,48636,12.31,73830.8,-3.03,-33.27,-33.55,0,*5A
1485637283.33,48637,12.31,73828.0,-3.01,-33.43,-33.73,0,*5F
1485637284.59,48638,12.31,73830.0,-3.01,-33.37,-33.61,0,*50
1485637285.83,48639,12.31,73830.8,-3.03,-33.55,-33.77,0,*50
1485637287.06,48640,12.31,73828.3,-3.03,-33.43,-33.55,0,*59
1485637288.31,48641,12.38,73830.3,-3.03,-33.43,-33.61,0,*5F
1485637289.57,48642,12.31,73830.0,-3.03,-33.43,-33.61,0,*5C
1485637290.78,48643,12.31,73828.5,-3.03,-33.21,-33.37,0,*5A
1485637292.07,48644,12.31,73830.8,-3.01,-33.27,-33.43,0,*5A
1485637293.34,48645,12.31,73828.8,-3.01,-33.37,-33.73,0,*59
1485637294.54,48646,12.31,73828.8,-3.03,-33.21,-33.55,0,*5B
1485637295.81,48647,12.31,73826.0,-3.01,-33.37,-33.43,0,*58
1485637297.03,48648,12.31,73826.8,-3.03,-33.37,-33.55,0,*52
1485637298.24,48649,12.31,73830.3,-3.03,-33.37,-33.55,0,*53
1485637299.45,48650,12.31,73830.3,-3.03,-33.37,-33.55,0,*5B
1485637300.69,48651,12.31,73826.5,-3.03,-33.37,-33.73,0,*5E
1485637301.95,48652,12.31,73828.8,-3.01,-33.55,-33.77,0,*5F
1485637303.16,48653,12.31,73828.5,-3.03,-33.37,-33.55,0,*58
1485637304.39,48654,12.31,73828.5,-3.03,-33.55,-33.73,0,*5F
1485637305.65,48655,12.31,73830.8,-3.01,-33.37,-33.61,0,*5B
1485637306.89,48656,12.31,73830.3,-3.01,-33.37,-33.55,0,*5F
1485637308.15,48657,12.31,73824.3,-3.03,-33.43,-33.73,0,*5B
1485637309.43,48658,12.31,73828.5,-3.01,-33.43,-33.73,0,*56
1485637310.69,48659,12.31,73826.3,-3.03,-33.43,-33.61,0,*56
1485637311.95,48660,12.31,73824.8,-3.01,-33.37,-33.61,0,*5D
1485637313.22,48661,12.31,73828.0,-3.01,-33.37,-33.43,0,*5C
1485637314.48,48662,12.31,73828.0,-3.01,-33.37,-33.61,0,*5F
1485637315.74,48663,12.31,73830.0,-3.01,-33.37,-33.61,0,*5E
1485637317.0,48664,12.31,73828.8,-3.01,-33.37,-33.61,0,*59
1485637318.26,48665,12.31,73830.0,-3.03,-33.43,-33.73,0,*5A
1485637319.49,48666,12.31,73828.8,-3.03,-33.55,-33.73,0,*5E
1485637320.72,48667,12.31,73826.8,-3.03,-33.55,-33.73,0,*5F
1485637321.98,48668,12.31,73830.5,-3.03,-33.43,-33.73,0,*57
1485637323.21,48669,12.31,73826.3,-3.03,-33.27,-33.55,0,*50
1485637324.45,48670,12.31,73830.0,-3.03,-33.37,-33.61,0,*5E
1485637325.66,48671,12.31,73830.3,-3.03,-33.21,-33.37,0,*5B
1485637326.87,48672,12.31,73828.3,-3.03,-33.37,-33.55,0,*5B
1485637328.09,48673,12.31,73830.0,-3.03,-33.37,-33.55,0,*5A
1485637329.32,48674,12.31,73828.5,-3.03,-33.37,-33.73,0,*59
1485637330.59,48675,12.31,73828.3,-3.03,-33.43,-33.43,0,*58
1485637331.82,48676,12.31,73828.0,-3.03,-33.37,-33.61,0,*58
1485637333.08,48677,12.31,73826.8,-3.03,-33.43,-33.73,0,*59
1485637334.36,48678,12.31,73830.0,-3.01,-33.61,-33.77,0,*50
1485637335.6,48679,12.31,73828.0,-3.01,-33.37,-33.55,0,*52
1485637336.86,48680,12.31,73830.8,-3.03,-33.43,-33.73,0,*51
1485637338.09,48681,12.31,73826.3,-3.03,-33.37,-33.61,0,*50
1485637339.33,48682,12.31,73828.3,-3.03,-33.55,-33.73,0,*54
1485637340.61,48683,12.31,73828.8,-3.01,-33.43,-33.73,0,*50
1485637341.84,48684,12.31,73828.8,-3.03,-33.55,-33.77,0,*56
1485637343.06,48685,12.31,73830.5,-3.03,-33.37,-33.55,0,*53
1485637344.29,48686,12.31,73830.0,-3.03,-33.37,-33.61,0,*57
1485637345.52,48687,12.31,73826.3,-3.03,-33.55,-33.73,0,*51
1485637346.78,48688,12.31,73828.3,-3.03,-33.43,-33.61,0,*5A
1485637348.07,48689,12.31,73826.8,-3.01,-33.27,-33.43,0,*5B
1485637349.31,48690,12.31,73826.5,-3.03,-33.21,-33.27,0,*55
1485637350.52,48691,12.31,73832.3,-3.03,-33.37,-33.37,0,*52
1485637351.79,48692,12.31,73830.5,-3.03,-33.27,-33.43,0,*53
1485637353.02,48693,12.31,73828.5,-3.03,-33.37,-33.61,0,*53
1485637354.26,48694,12.31,73830.3,-3.01,-33.37,-33.55,0,*51
1485637355.55,48695,12.31,73824.3,-3.01,-33.27,-33.43,0,*56
1485637356.84,48696,12.31,73830.0,-3.01,-33.27,-33.43,0,*55
1485637358.1,48697,12.31,73828.0,-3.03,-33.09,-33.43,0,*5A
1485637359.4,48698,12.31,73826.3,-3.01,-33.09,-33.27,0,*55
1485637360.66,48699,12.31,73828.3,-3.01,-33.03,-33.27,0,*5E
1485637361.93,48700,12.31,73824.3,-3.01,-33.03,-33.27,0,*5F
1485637363.14,48701,12.31,73826.3,-3.03,-33.21,-33.21,0,*5A
1485637364.43,48702,12.31,73824.3,-3.01,-33.27,-33.27,0,*5B
1485637365.67,48703,12.31,73822.5,-3.03,-33.09,-33.37,0,*55
1485637366.93,48704,12.31,73828.8,-3.01,-33.21,-33.43,0,*59
1485637368.2,48705,12.31,73826.8,-3.01,-33.09,-33.37,0,*51
1485637369.49,48706,12.31,73826.8,-3.01,-33.09,-33.27,0,*53
1485637370.76,48707,12.31,73826.5,-3.01,-33.37,-33.43,0,*5D
1485637372.03,48708,12.31,73828.0,-3.01,-33.37,-33.43,0,*52
1485637373.24,48709,12.31,73828.0,-2.99,-33.21,-33.37,0,*57
1485637374.48,48710,12.31,73826.5,-3.01,-33.37,-33.55,0,*5C
1485637375.74,48711,12.31,73828.5,-3.01,-33.49,-33.83,0,*5F
1485637377.02,48712,12.31,73830.5,-3.01,-33.43,-33.73,0,*59
1485637378.26,48713,12.31,73824.8,-2.99,-33.49,-33.67,0,*57
1485637379.47,48714,12.31,73826.5,-2.99,-33.55,-33.83,0,*57
1485637380.7,48715,12.31,73826.8,-2.99,-33.49,-33.95,0,*5C
1485637381.91,48716,12.31,73830.5,-2.99,-33.37,-33.55,0,*5A
1485637383.17,48717,12.31,73824.0,-3.01,-33.55,-33.77,0,*5F
1485637384.44,48718,12.31,73832.3,-3.03,-33.73,-34.01,0,*50
1485637385.7,48719,12.31,73830.5,-3.03,-33.73,-33.89,0,*56
1485637386.91,48720,12.31,73824.8,-2.99,-33.67,-33.95,0,*56
1485637388.19,48721,12.31,73830.3,-3.01,-33.61,-33.89,0,*5C
1485637389.42,48722,12.31,73830.0,-3.03,-33.43,-33.55,0,*5C
1485637390.7,48723,12.31,73830.5,-3.01,-33.61,-33.61,0,*58
1485637391.99,48724,12.31,73826.3,-3.01,-33.61,-34.01,0,*5E
1485637393.22,48725,12.31,73830.3,-3.03,-33.55,-33.89,0,*5D
1485637394.5,48726,12.31,73828.0,-3.01,-33.43,-33.77,0,*5A
1485637395.79,48727,12.31,73830.0,-3.01,-33.43,-33.73,0,*5F
1485637397.03,48728,12.31,73828.0,-3.01,-33.37,-33.55,0,*57
1485637398.25,48729,12.31,73830.0,-3.03,-33.55,-33.61,0,*57
1485637399.53,48730,12.31,73828.8,-3.01,-33.43,-33.61,0,*5A
1485637400.77,48731,12.31,73828.3,-3.03,-33.55,-33.77,0,*59
1485637402.05,48732,12.31,73828.8,-3.01,-33.61,-33.89,0,*5E
1485637403.31,48733,12.31,73830.0,-3.01,-33.55,-33.89,0,*58
1485637404.6,48734,12.31,73826.0,-3.01,-33.73,-33.77,0,*5A
1485637405.86,48735,12.31,73826.0,-3.03,-33.61,-34.01,0,*5C
1485637407.11,48736,12.31,73824.3,-3.03,-33.43,-33.73,0,*5D
1485637408.37,48737,12.31,73830.5,-3.03,-33.61,-34.01,0,*5E
1485637409.63,48738,12.31,73828.3,-3.03,-33.43,-33.73,0,*53
1485637410.87,48739,12.31,73828.3,-3.03,-33.55,-34.01,0,*57
1485637412.13,48740,12.31,73828.8,-3.03,-33.43,-33.73,0,*5C
1485637413.36,48741,12.31,73824.5,-3.03,-33.37,-33.61,0,*5D
1485637414.62,48742,12.31,73826.0,-3.03,-33.43,-33.73,0,*5E
1485637415.88,48743,12.31,73824.5,-3.03,-33.61,-33.89,0,*5A
1485637417.13,48744,12.31,73828.8,-3.03,-33.43,-33.73,0,*58
1485637418.38,48745,12.31,73826.3,-3.03,-33.37,-33.43,0,*59
1485637419.61,48746,12.31,73828.0,-3.03,-33.37,-33.61,0,*5A
1485637420.85,48747,12.31,73828.0,-3.01,-33.37,-33.55,0,*5E
1485637422.11,48748,12.31,73826.3,-3.03,-33.43,-33.77,0,*50
1485637423.34,48749,12.31,73826.8,-3.03,-33.27,-33.55,0,*53
1485637424.6,48750,12.31,73824.5,-3.01,-33.27,-33.55,0,*59
1485637425.89,48751,12.31,73824.8,-3.01,-33.27,-33.43,0,*5F
1485637427.12,48752,12.31,73826.0,-3.01,-33.37,-33.55,0,*5A
1485637428.4,48753,12.31,73824.3,-3.01,-33.43,-33.61,0,*5F
1485637429.69,48754,12.31,73828.0,-3.01,-33.43,-33.61,0,*58
1485637430.92,48755,12.31,73830.3,-3.01,-33.37,-33.55,0,*5D
1485637432.21,48756,12.31,73826.5,-3.01,-33.09,-33.27,0,*56
1485637433.43,48757,12.31,73826.0,-3.03,-33.21,-33.37,0,*5E
1485637434.69,48758,12.31,73828.0,-3.01,-33.09,-33.21,0,*5E
1485637435.93,48759,12.31,73824.5,-3.01,-33.21,-33.37,0,*52
1485637437.14,48760,12.31,73824.3,-2.99,-33.21,-33.37,0,*58
1485637438.4,48761,12.31,73828.5,-2.99,-33.31,-33.49,0,*51
1485637439.64,48762,12.31,73828.0,-2.99,-32.85,-33.15,0,*55
1485637440.85,48763,12.31,73828.3,-2.99,-33.03,-33.21,0,*5C
1485637442.05,48764,12.31,73830.5,-2.99,-33.15,-33.37,0,*5B
1485637443.29,48765,12.31,73828.3,-2.99,-33.31,-33.55,0,*58
1485637444.55,48766,12.31,73826.0,-2.99,-33.49,-33.73,0,*50
1485637445.76,48767,12.31,73828.8,-2.99,-33.37,-33.67,0,*5D
1485637447.0,48768,12.31,73824.5,-2.99,-33.31,-33.37,0,*51
1485637448.24,48769,12.31,73826.3,-2.99,-33.31,-33.37,0,*50
1485637449.48,48770,12.31,73828.0,-2.99,-33.31,-33.37,0,*58
1485637450.76,48771,12.31,73826.3,-2.97,-33.31,-33.49,0,*5E
1485637452.0,48772,12.31,73826.8,-2.99,-33.31,-33.37,0,*5A
1485637453.21,48773,12.31,73826.3,-2.99,-33.37,-33.55,0,*59
1485637454.47,48774,12.31,73828.0,-2.97,-33.31,-33.55,0,*56
1485637455.7,48775,12.31,73830.3,-2.99,-33.15,-33.31,0,*5D
1485637456.93,48776,12.31,73828.5,-2.99,-33.21,-33.31,0,*59
1485637458.17,48777,12.31,73830.3,-2.99,-33.31,-33.37,0,*5F
1485637459.41,48778,12.31,73826.3,-2.97,-33.21,-33.37,0,*5F
1485637460.66,48779,12.31,73830.8,-2.97,-33.15,-33.31,0,*5F
1485637461.92,48780,12.31,73830.3,-2.97,-33.31,-33.55,0,*5D
1485637463.18,48781,12.31,73828.8,-2.99,-33.31,-33.49,0,*5F
1485637464.41,48782,12.31,73830.5,-2.97,-33.37,-33.55,0,*59
1485637465.67,48783,12.31,73828.5,-2.97,-33.37,-33.73,0,*5C
1485637466.91,48784,12.31,73830.5,-2.99,-33.55,-33.73,0,*51
1485637468.14,48785,12.31,73830.8,-2.97,-33.55,-33.67,0,*5B
1485637469.36,48786,12.31,73828.0,-2.97,-33.55,-33.83,0,*52
1485637470.58,48787,12.31,73830.0,-2.99,-33.37,-33.67,0,*53
1485637471.79,48788,12.31,73828.0,-2.99,-33.37,-33.55,0,*5D
1485637473.05,48789,12.31,73828.8,-2.99,-33.31,-33.49,0,*57
1485637474.31,48790,12.31,73832.3,-2.97,-33.31,-33.37,0,*58
1485637475.55,48791,12.31,73828.3,-2.97,-33.21,-33.37,0,*58
1485637476.79,48792,12.31,73828.0,-2.97,-33.37,-33.67,0,*59
1485637478.02,48793,12.31,73828.8,-2.99,-33.37,-33.49,0,*5A
1485637479.26,48794,12.31,73832.5,-2.97,-33.37,-33.55,0,*5E
1485637480.49,48795,12.31,73832.0,-2.97,-33.37,-33.67,0,*5E
1485637481.73,48796,12.31,73832.8,-2.95,-33.43,-33.67,0,*5C
1485637482.99,48797,12.31,73834.3,-2.97,-33.49,-33.67,0,*55
1485637484.25,48798,12.31,73828.0,-2.97,-33.31,-33.55,0,*54
1485637485.48,48799,12.31,73828.8,-2.97,-33.37,-33.55,0,*53
1485637486.72,48800,12.31,73830.0,-2.97,-33.37,-33.55,0,*5C
1485637487.95,48801,12.31,73830.3,-2.97,-33.37,-33.67,0,*5C
1485637489.24,48802,12.31,73830.8,-2.97,-33.49,-33.73,0,*53
1485637490.48,48803,12.31,73830.8,-2.97,-33.37,-33.67,0,*5E
1485637491.71,48804,12.31,73830.0,-2.97,-33.37,-33.55,0,*58
1485637492.94,48805,12.31,73828.8,-2.97,-33.55,-33.95,0,*51
1485637494.14,48806,12.31,73828.5,-2.99,-33.55,-33.83,0,*5B
1485637495.37,48807,12.31,73830.3,-2.97,-33.55,-33.83,0,*54
1485637496.6,48808,12.31,73830.8,-2.97,-33.67,-33.95,0,*5D
1485637497.81,48809,12.31,73830.5,-2.99,-33.55,-33.83,0,*54
1485637499.04,48810,12.31,73832.5,-2.97,-33.67,-33.95,0,*54
1485637500.3,48811,12.31,73828.0,-2.97,-33.73,-34.07,0,*5C
1485637501.53,48812,12.31,73830.5,-2.97,-33.67,-33.95,0,*56
1485637502.79,48813,12.31,73830.3,-2.97,-33.67,-33.73,0,*5F
1485637504.05,48814,12.31,73830.3,-2.97,-33.49,-33.83,0,*5B
1485637505.28,48815,12.31,73830.3,-2.97,-33.67,-33.83,0,*56
1485637506.48,48816,12.31,73826.0,-2.99,-33.55,-33.83,0,*5A
1485637507.71,48817,12.31,73830.5,-2.97,-33.67,-33.95,0,*53
1485637508.94,48818,12.31,73828.0,-2.97,-33.55,-33.83,0,*5A
1485637510.15,48819,12.31,73830.5,-2.99,-33.67,-33.95,0,*53
1485637511.36,48820,12.31,73828.5,-2.99,-33.67,-33.83,0,*5E
1485637512.56,48821,12.31,73830.3,-2.99,-33.67,-33.95,0,*58
1485637513.79,48822,12.31,73828.8,-2.97,-33.55,-33.83,0,*53
1485637515.02,48823,12.31,73830.8,-2.97,-33.55,-33.83,0,*52
1485637516.25,48824,12.31,73828.8,-2.97,-33.55,-33.83,0,*55
1485637517.5,48825,12.31,73830.3,-2.97,-33.55,-33.73,0,*5B
1485637518.73,48826,12.31,73824.5,-2.97,-33.55,-33.83,0,*57
1485637519.97,48827,12.31,73828.0,-2.99,-33.37,-33.73,0,*53
1485637521.21,48828,12.31,73826.3,-2.99,-33.31,-33.37,0,*5A
1485637522.47,48829,12.31,73828.0,-2.99,-33.31,-33.49,0,*52
1485637523.73,48830,12.31,73826.5,-2.99,-33.31,-33.31,0,*55
1485637524.94,48831,12.31,73826.8,-2.99,-33.37,-33.67,0,*51
1485637526.16,48832,12.31,73828.5,-2.99,-33.37,-33.67,0,*52
1485637527.41,48833,12.31,73830.0,-2.97,-33.55,-33.73,0,*5C
1485637528.64,48834,12.31,73830.8,-2.97,-33.37,-33.55,0,*5B
1485637529.88,48835,12.31,73828.3,-2.97,-33.37,-33.55,0,*5A
1485637531.14,48836,12.31,73828.0,-2.97,-33.49,-33.55,0,*50
1485637532.4,48837,12.31,73828.3,-2.97,-33.37,-33.73,0,*5C
1485637533.63,48838,12.31,73828.8,-2.97,-33.55,-33.67,0,*52
1485637534.92,48839,12.31,73830.5,-2.97,-33.49,-33.73,0,*5B
1485637536.17,48840,12.31,73828.8,-2.97,-33.55,-33.73,0,*58
1485637537.4,48841,12.31,73828.5,-2.97,-33.55,-33.83,0,*56
1485637538.66,48842,12.31,73828.0,-2.97,-33.49,-33.83,0,*58
1485637539.92,48843,12.31,73828.0,-2.97,-33.67,-33.73,0,*5A
1485637541.12,48844,12.25,73826.5,-2.99,-33.55,-33.95,0,*5A
1485637542.35,48845,12.31,73828.8,-2.97,-33.55,-33.83,0,*52
1485637543.58,48846,12.31,73830.5,-2.97,-33.55,-33.83,0,*51
1485637544.78,48847,12.31,73824.0,-2.99,-33.55,-33.83,0,*5E
1485637546.01,48848,12.31,73826.5,-2.97,-33.55,-33.83,0,*5F
1485637547.23,48849,12.31,73830.0,-2.97,-33.55,-33.95,0,*59
1485637548.46,48850,12.31,73830.5,-2.97,-33.55,-33.95,0,*51
1485637549.69,48851,12.31,73828.0,-2.97,-33.67,-33.83,0,*56
1485637550.92,48852,12.31,73826.5,-2.97,-33.55,-33.83,0,*54
1485637552.18,48853,12.31,73830.0,-2.97,-33.49,-33.67,0,*52
1485637553.42,48854,12.31,73830.0,-2.97,-33.37,-33.55,0,*5D
1485637554.65,48855,12.31,73828.0,-2.97,-33.37,-33.67,0,*5D
1485637555.86,48856,12.31,73826.5,-2.99,-33.37,-33.55,0,*51
1485637557.1,48857,12.31,73826.0,-2.97,-33.37,-33.55,0,*5E
1485637558.38,48858,12.31,73826.5,-2.97,-33.31,-33.49,0,*5A
1485637559.64,48859,12.31,73828.0,-2.97,-33.31,-33.55,0,*56
1485637560.92,48860,12.31,73830.3,-2.97,-33.31,-33.49,0,*51
1485637562.18,48861,12.31,73828.0,-2.95,-33.27,-33.49,0,*55
1485637563.44,48862,12.31,73830.3,-2.95,-33.27,-33.49,0,*56
1485637564.7,48863,12.31,73828.3,-2.97,-33.03,-33.31,0,*5C
1485637565.93,48864,12.31,73826.3,-2.95,-33.15,-33.27,0,*59
1485637567.19,48865,12.31,73830.0,-2.95,-33.27,-33.49,0,*51
1485637568.42,48866,12.31,73826.8,-2.95,-33.15,-33.27,0,*5B
1485637569.63,48867,12.31,73828.8,-2.91,-33.15,-33.15,0,*5F
1485637570.89,48868,12.31,73824.8,-2.95,-33.27,-33.49,0,*5C
1485637572.15,48869,12.31,73828.3,-2.91,-33.31,-33.61,0,*54
1485637573.41,48870,12.31,73828.3,-2.95,-33.27,-33.27,0,*5D
1485637574.65,48871,12.31,73824.0,-2.95,-33.15,-33.27,0,*5D
1485637575.88,48872,12.31,73828.3,-2.95,-33.15,-33.31,0,*59
1485637577.14,48873,12.31,73826.3,-2.95,-33.27,-33.31,0,*59
1485637578.4,48874,12.31,73824.5,-2.91,-33.27,-33.49,0,*55
1485637579.66,48875,12.31,73830.8,-2.91,-33.43,-33.49,0,*56
1485637580.91,48876,12.31,73824.8,-2.91,-33.43,-33.61,0,*5F
1485637582.18,48877,12.31,73824.0,-2.95,-33.31,-33.43,0,*5F
1485637583.44,48878,12.31,73824.8,-2.91,-33.49,-33.77,0,*5C
1485637584.71,48879,12.31,73826.3,-2.91,-33.49,-33.77,0,*5D
1485637585.97,48880,12.31,73824.8,-2.91,-33.31,-33.61,0,*53
1485637587.21,48881,12.31,73826.8,-2.91,-33.31,-33.67,0,*54
1485637588.45,48882,12.31,73826.8,-2.95,-33.49,-33.67,0,*5C
1485637589.68,48883,12.31,73824.5,-2.95,-33.49,-33.67,0,*5D
1485637590.94,48884,12.31,73826.5,-2.95,-33.31,-33.61,0,*53
1485637592.2,48885,12.31,73826.5,-2.91,-33.43,-33.77,0,*54
1485637593.46,48886,12.31,73824.3,-2.95,-33.61,-33.89,0,*52
1485637594.72,48887,12.31,73824.0,-2.91,-33.49,-33.77,0,*5C
1485637595.98,48888,12.31,73824.3,-2.91,-33.61,-33.89,0,*58
1485637597.21,48889,12.31,73826.5,-2.91,-33.61,-33.67,0,*59
1485637598.47,48890,12.31,73826.8,-2.95,-33.49,-33.77,0,*5E
1485637599.73,48891,12.31,73824.3,-2.91,-33.43,-33.61,0,*56
1485637600.99,48892,12.31,73828.5,-2.91,-33.43,-33.77,0,*52
1485637602.25,48893,12.31,73826.5,-2.91,-33.61,-33.77,0,*53
1485637603.51,48894,12.31,73824.8,-2.91,-33.49,-33.77,0,*5E
1485637604.77,48895,12.31,73824.3,-2.95,-33.61,-33.89,0,*50
1485637606.03,48896,12.25,73824.5,-2.91,-33.31,-33.49,0,*5E
1485637607.29,48897,12.31,73824.3,-2.91,-33.31,-33.61,0,*55
1485637608.55,48898,12.31,73826.3,-2.91,-33.27,-33.49,0,*57
1485637609.81,48899,12.31,73826.0,-2.91,-33.43,-33.49,0,*54
1485637611.07,48900,12.31,73826.5,-2.91,-33.49,-33.77,0,*52
1485637612.34,48901,12.31,73824.0,-2.91,-33.49,-33.89,0,*52
1485637613.6,48902,12.31,73826.3,-2.91,-33.49,-33.89,0,*51
1485637614.85,48903,12.31,73826.5,-2.95,-33.61,-33.89,0,*5E
1485637616.12,48904,12.31,73824.3,-2.91,-33.49,-33.89,0,*57
1485637617.37,48905,12.31,73826.3,-2.95,-33.61,-33.89,0,*58
1485637618.63,48906,12.31,73828.5,-2.91,-33.61,-33.77,0,*5E
1485637619.89,48907,12.31,73824.0,-2.91,-33.61,-33.89,0,*5E
1485637621.15,48908,12.31,73828.5,-2.91,-33.49,-33.77,0,*5A
1485637622.41,48909,12.31,73824.8,-2.95,-33.61,-33.89,0,*54
1485637623.65,48910,12.31,73828.5,-2.95,-33.67,-34.01,0,*5D
1485637624.86,48911,12.31,73824.8,-2.95,-33.83,-34.07,0,*50
1485637626.11,48912,12.31,73824.5,-2.95,-33.43,-33.61,0,*58
1485637627.35,48913,12.31,73828.5,-2.91,-33.43,-33.67,0,*5B
1485637628.6,48914,12.31,73828.3,-2.95,-33.43,-33.61,0,*5E
1485637629.84,48915,12.31,73828.8,-2.91,-33.49,-33.67,0,*57
1485637631.1,48916,12.31,73824.8,-2.95,-33.49,-33.89,0,*50
1485637632.36,48917,12.25,73826.5,-2.91,-33.49,-33.61,0,*53
1485637633.63,48918,12.31,73828.5,-2.95,-33.49,-33.89,0,*5E
1485637634.88,48919,12.31,73830.0,-2.91,-33.61,-33.89,0,*51
1485637636.14,48920,12.31,73828.5,-2.95,-33.31,-33.61,0,*5C
1485637637.39,48921,12.25,73824.0,-2.95,-33.61,-33.77,0,*5F
1485637638.65,48922,12.31,73824.3,-2.95,-33.31,-33.61,0,*5E
1485637639.91,48923,12.31,73828.5,-2.91,-33.31,-33.61,0,*5B
1485637641.17,48924,12.31,73828.3,-2.91,-33.31,-33.61,0,*5C
1485637642.4,48925,12.31,73828.3,-2.91,-33.43,-33.67,0,*5E
1485637643.66,48926,12.31,73824.5,-2.95,-33.61,-33.77,0,*58
1485637644.9,48927,12.31,73826.0,-2.95,-33.43,-33.67,0,*58
1485637646.13,48928,12.31,73828.5,-2.91,-33.31,-33.67,0,*56
1485637647.39,48929,12.25,73824.5,-2.91,-33.61,-33.89,0,*52
1485637648.63,48930,12.31,73828.3,-2.91,-33.43,-33.67,0,*5A
1485637649.89,48931,12.31,73826.0,-2.91,-33.31,-33.61,0,*58
1485637651.14,48932,12.25,73826.8,-2.91,-33.43,-33.61,0,*5E
1485637652.4,48933,12.25,73826.5,-2.95,-33.43,-33.61,0,*5B
1485637653.66,48934,12.31,73830.0,-2.91,-33.43,-33.61,0,*58
1485637654.92,48935,12.31,73826.5,-2.91,-33.43,-33.77,0,*5E
1485637656.15,48936,12.31,73828.0,-2.91,-33.43,-33.67,0,*5C
1485637657.39,48937,12.31,73826.8,-2.91,-33.31,-33.67,0,*58
1485637658.63,48938,12.31,73824.5,-2.91,-33.49,-33.67,0,*58
1485637659.89,48939,12.25,73822.0,-2.91,-33.43,-33.61,0,*55
1485637661.13,48940,12.31,73828.8,-2.91,-33.43,-33.67,0,*5D
1485637662.37,48941,12.31,73826.3,-2.91,-33.43,-33.67,0,*5C
1485637663.62,48942,12.31,73826.5,-2.89,-33.43,-33.83,0,*5C
1485637664.87,48943,12.25,73824.8,-2.87,-33.43,-33.61,0,*5F
1485637666.08,48944,12.25,73824.0,-2.87,-33.55,-33.95,0,*54
1485637667.32,48945,12.31,73828.5,-2.91,-33.67,-34.01,0,*59
1485637668.56,48946,12.31,73826.0,-2.91,-33.67,-33.89,0,*5D
1485637669.79,48947,12.25,73824.8,-2.91,-33.67,-33.89,0,*5C
1485637671.01,48948,12.31,73828.5,-2.91,-33.83,-34.07,0,*58
1485637672.27,48949,12.31,73826.3,-2.89,-33.73,-33.95,0,*53
1485637673.55,48950,12.31,73826.3,-2.89,-33.77,-34.01,0,*55
1485637674.76,48951,12.31,73824.8,-2.91,-33.83,-34.07,0,*50
1485637676.0,48952,12.25,73820.0,-2.91,-33.67,-34.01,0,*5F
1485637677.27,48953,12.25,73824.3,-2.91,-33.77,-34.01,0,*5F
1485637678.51,48954,12.31,73826.3,-2.91,-33.67,-33.89,0,*5E
1485637679.76,48955,12.25,73824.8,-2.91,-33.61,-33.89,0,*59
1485637681.03,48956,12.25,73820.5,-2.91,-33.49,-33.89,0,*50
1485637682.29,48957,12.25,73820.8,-2.91,-33.49,-33.89,0,*51
1485637683.53,48958,12.31,73826.8,-2.95,-33.49,-33.67,0,*5A
1485637684.79,48959,12.25,73824.3,-2.89,-33.37,-33.61,0,*59
1485637686.05,48960,12.25,73820.8,-2.91,-33.43,-33.77,0,*5E
1485637687.31,48961,12.25,73826.5,-2.91,-33.31,-33.49,0,*57
1485637688.57,48962,12.31,73826.3,-2.91,-33.27,-33.43,0,*59
1485637689.81,48963,12.25,73822.3,-2.89,-33.21,-33.37,0,*54
1485637691.07,48964,12.31,73826.0,-2.89,-33.21,-33.43,0,*50
1485637692.33,48965,12.25,73826.0,-2.89,-33.27,-33.55,0,*50
1485637693.61,48966,12.31,73826.3,-2.89,-33.27,-33.43,0,*54
1485637694.88,48967,12.25,73824.5,-2.89,-33.21,-33.43,0,*53
1485637696.13,48968,12.25,73826.8,-2.89,-33.37,-33.61,0,*5B
1485637697.41,48969,12.25,73822.3,-2.89,-33.27,-33.61,0,*5B
1485637698.64,48970,12.25,73826.3,-2.87,-33.27,-33.55,0,*5A